Regional Weather Roundup
Issued by NWS

Home | Current Version | Previous Version | Text Only | Print | Product List | Glossary Off
Versions: 1 2 3 4 5 6 7 8 9 10 11 12 13 14 15 16 17 18 19 20 21 22 23 24 25 26 27 28 29 30 31 32 33 34 35 36 37 38 39 40 41 42 43 44 45 46 47 48 49 50

000
ASUS43 KLMK 291910
RWRKY
KENTUCKY REGIONAL WEATHER ROUNDUP
NATIONAL WEATHER SERVICE LOUISVILLE KY
200 PM EST THU JAN 29 2015

NOTE "FAIR" INDICATES FEW OR NO CLOUDS BELOW 12,000 FEET
WITH NO SIGNIFICANT WEATHER AND/OR OBSTRUCTIONS TO VISIBILITY.

KYZ001>023-026-027-061>063-070>075-292000-
WESTERN AND SOUTH CENTRAL KENTUCKY

CITY           SKY/WX    TMP DP  RH WIND       PRES   REMARKS
PADUCAH        CLOUDY    45  33  63 N13       30.13R
HENDERSON      CLOUDY    43  32  65 NW23G30   30.09R
OWENSBORO      CLOUDY    44  37  76 NW14G22   30.08R
HOPKINSVILLE   PTSUNNY   55  41  58 NW17G26   30.03R
BOWLING GREEN  CLOUDY    57  41  55 NW14G22   30.00S
GLASGOW        CLOUDY    59  41  52 W14G24    29.96F
$$

KYZ024-025-028>034-038-045-046-053-292000-
NORTH CENTRAL KENTUCKY

CITY           SKY/WX    TMP DP  RH WIND       PRES   REMARKS
LOUISVILLE/SDF CLOUDY    47  35  63 NW21      29.99R
LOUISVILLE/LOU CLOUDY    47  36  65 W22G29    29.98R
FORT KNOX      CLOUDY    46  35  66 W15G26    29.98R
$$

KYZ035>037-039>044-047>052-055>060-089>105-292000-
NORTHEAST KENTUCKY

CITY           SKY/WX    TMP DP  RH WIND       PRES   REMARKS
LEXINGTON      CLOUDY    53  39  59 SW14G33   29.89S
COVINGTON      CLOUDY    46  36  68 W21G32    29.85R
FRANKFORT      CLOUDY    51  39  63 W17G28    29.89R
$$

KYZ054-064>069-076>088-106>120-292000-
SOUTHEAST KENTUCKY

CITY           SKY/WX    TMP DP  RH WIND       PRES   REMARKS
JACKSON        CLOUDY    52  37  56 SW12      29.90F
LONDON         PTSUNNY   56  32  40 SW17G26   29.95F
SOMERSET       CLOUDY    55  36  47 SW20G30   29.97F
MIDDLESBORO    SUNNY     52  34  50 S12G21    30.00F
MONTICELLO     PTCLDY    61  38  42 SW18G28   29.99F
$$




USA.gov is the U.S. government's official web portal to all federal, state and local government web resources and services.